Tracking 23762 objects as of 21-Oct-2021
HD Live streaming from Space Station
objects crossing your sky now

KIKU 1 (ETS 1)

Track KIKU 1 (ETS 1) now!
10-day predictions
KIKU 1 (ETS 1) is classified as:


NORAD ID: 8197
Int'l Code: 1975-082A
Perigee: 980.5 km
Apogee: 1,108.6 km
Inclination: 47.0 °
Period: 105.9 minutes
Semi major axis: 7415 km
RCS: 1.482 m2 (large)
Launch date: September 9, 1975
Source: Japan (JPN)
Launch site: TANEGASHIMA SPACE CENTER (TNSTA)
aabbcc
Your satellite tracking list
Your tracking list is empty




NASA's NSSDC Master Catalog

Two Line Element Set (TLE):
1  8197U 75082A   21294.10261089 -.00000118  00000-0  96065-5 0  9994
2  8197  46.9885 224.5595 0086363 290.3499 149.2063 13.59523040291336
Source of the keplerian elements: AFSPC